Regional Weather Roundup
Issued by NWS Charleston, SC

Current Version | Previous Version | Graphics & Text | Print | Product List | Glossary On
Versions: 1 2 3 4 5 6 7 8 9 10 11 12 13 14 15 16 17 18 19 20 21 22 23 24 25 26 27 28 29 30 31 32 33 34 35 36 37 38 39 40 41 42 43 44 45 46 47 48 49 50
000 ASUS42 KCHS 302013 RWRCHS REGIONAL WEATHER ROUNDUP NATIONAL WEATHER SERVICE CHARLESTON SC 400 PM EDT SAT APR 30 2016 NOTE: "FAIR" INDICATES FEW OR NO CLOUDS BELOW 12,000 FEET WITH NO SIGNIFICANT WEATHER AND/OR OBSTRUCTIONS TO VISIBILITY. NOT ALL STATIONS ARE QUALITY CONTROLLED. USE DATA WITH CAUTION... ESPECIALLY DEWPOINT OBSERVATIONS. SCZ027-030-031-034>040-042>050-302100- ...SOUTHEAST SOUTH CAROLINA... CITY SKY/WX TMP DP RH WIND PRES REMARKS N CHARLESTON PTSUNNY 81 68 64 S14 30.02F WATERFRONT PRK N/A 78 73 84 E9 30.02S MOUNT PLEASANT FAIR 79 72 78 E9 30.03F JOHNS ISLAND CLOUDY 79 73 83 E12 30.03F PINOPOLIS N/A 88 68 51 S6 29.94S HX 91 MONCKS CORNER MOCLDY 81 63 54 SE8G17 30.02F SUMMERVILLE FAIR 86 68 54 SE7 30.03S BEAUFORT MCAS MOSUNNY 85 69 58 SE7 30.01F BEAUFORT ARPT FAIR 81 68 65 SE6 30.01F HILTON HEAD IS MOSUNNY 79 72 78 SE5 30.02F WALTERBORO MOCLDY 82 64 54 SE10 30.02S ALLENDALE FAIR 86 59 39 SE17 29.97F ...SOUTHERN MIDLANDS AND PEE DEE... CITY SKY/WX TMP DP RH WIND PRES REMARKS GEORGETOWN MOCLDY 73 66 78 E12G18 30.06F KINGSTREE FAIR 79 64 61 E12 30.02S ORANGEBURG MOSUNNY 86 62 44 S15 29.99F BARNWELL FAIR 90 64 43 SE13G24 29.98F HX 91 AIKEN FAIR 86 59 39 SE12G18 30.00F MANNING NOT AVBL COLUMBIA PTSUNNY 88 62 41 SE17 29.96F SUMTER MOSUNNY 84 66 53 SE7 29.97F FLORENCE PTSUNNY 81 66 60 SE13 30.03F MYRTLE BEACH PTSUNNY 73 61 64 E17 30.08F N MYRTLE BEACH MOSUNNY 73 64 73 E9 30.07F $$ GAZ063-065-086>088-099>101-113>116-118-119-134>141-150-302100- ...SOUTHEAST GEORGIA... CITY SKY/WX TMP DP RH WIND PRES REMARKS SAVANNAH ARPT PTSUNNY 84 65 52 SE14 29.99F HUNTER AAF MOSUNNY 82 70 66 SE13 29.98F FORT STEWART MOSUNNY 87 63 45 SE12 29.95F STATESBORO MOSUNNY 91 63 39 SE10G17 29.96F HX 91 SYLVANIA PTCLDY 88 62 41 SE9G16 29.98F CLAXTON FAIR 89 60 37 E6 29.96F ...CSRA...CENTRAL AND FAR SOUTHEAST GEORGIA... CITY SKY/WX TMP DP RH WIND PRES REMARKS THOMSON MOSUNNY 90 62 39 SE12G17 29.98F HX 90 AUGUSTA-BUSH MOSUNNY 90 61 37 SE13G24 29.94F HX 90 AUGUSTA-DANIEL MOSUNNY 88 63 43 SE14G21 29.96F SWAINSBORO FAIR 88 59 37 SE12 29.96F VIDALIA MOSUNNY 90 59 35 SE9 29.95F EASTMAN FAIR 88 62 41 SE8 29.95F HAZLEHURST FAIR 90 59 34 SE9G16 29.92F ALMA CLOUDY 89 57 33 SE10 29.93F WAYCROSS CLOUDY 89 62 39 S7 29.92F JESUP FAIR 91 61 35 SE8 29.96F HX 91 BAXLEY FAIR 91 54 27 S9 29.93F BRUNSWICK MOSUNNY 88 68 51 SE12G17 29.99F HX 91 SAINT SIMONS SUNNY 80 72 76 E10 29.98F $$ SCZ027-028-034-036>038-045-046-048>050-GAZ119-141-302100- ...LAKE AND SUPPLEMENTAL COASTAL OBSERVATIONS... STATION/POSITION TIME TEMP WIND PRES WAVE SWELL AIR SEA DIR/SP/G HT/PER HT/PER/DIR (UTC) (F) (DEG/KT/KT) (MB) (FT/S) (FT/S/D) WINYAH BAY NOT AVBL LAKE MURRAY 1900 82 110/ 2/ 7 1015.2F ACE BASIN NERRS NOT AVBL FORT PULASKI 1900 75 73 70/ 11/ 12 1017.0F SAPELO ISLAND 1900 84 130/ 8 1016.0S $$ ANZ835-935-AMZ111-154-330-350-352-354-370-450-454-472-302100- ...C-MAN AND BUOY OBSERVATIONS... STATION/POSITION TIME TEMP WIND PRES WAVE SWELL AIR SEA DIR/SP/G HT/PER HT/PER/DIR (UTC) (F) (DEG/KT/KT) (MB) (FT/S) (FT/S/D) BUOY 41004 1950 75 74 100/ 12/ 14 1016.3F 2/ 9 2/ 9 BUOY 41008 NOT AVBL FOLLY BEACH CMAN 1900 73 90/ 9/ 10 1017.5F CAPERS NEARSHORE 1908 73 72 90/ 8/ 12 1017.0F FRIPP NEARSHORE 1908 75 75 120/ 6/ 8 1016.2F STATION/POSITION TIME TEMP WIND PRES WAVE SWELL AIR SEA DIR/SP/G HT/PER HT/PER/DIR (UTC) (F) (DEG/KT/KT) (MB) (FT/S) (FT/S/D) 5E ST. MARYS GA 1921 75 N/A 2/ 9 FRYING PAN BUOY 1900 70 70 50/ 14/ 16 1018.1F BUOY 41025 1950 58 74 10/ 16/ 17 1020.5S 5/ 8 5/ 60/ 8 CAPE LOOKOUT NC 1900 63 40/ 17/ 18 1019.9F BUOY 41002 1950 71 60/ 12/ 14 1017.9F 5/10 5/ 30/10 BUOY 41010 1920 77 78 150/ 8/ 8 1016.1F ST AUGUSTINE FL 2000 75 74 130/ 12/ 14 1015.9F $$

USA.gov is the U.S. government's official web portal to all federal, state and local government web resources and services.